Regional Weather Roundup
Issued by NWS Grand Forks, ND

Home | Current Version | Previous Version | Graphics & Text | Print | Product List | Glossary On
Versions: 1 2 3 4 5 6 7 8 9 10 11 12 13 14 15 16 17 18 19 20 21 22 23 24 25 26 27 28 29 30 31 32 33 34 35 36 37 38 39 40 41 42 43 44 45 46 47 48 49 50
000
ASUS43 KFGF 250231
RWRFGF
PRAIRIE TO PINES  WEATHER ROUNDUP
NATIONAL WEATHER SERVICE EASTERN NORTH DAKOTA/GRAND FORKS ND
900 PM CDT WED MAY 24 2017

 **SATELLITE DATA USED TO AUGMENT SKY COVER AT AUTOMATED STATIONS**
 *****  WEATHER ACROSS EASTERN NORTH DAKOTA  *****

CITY           SKY/WX    TMP DP  RH WIND       PRES   REMARKS
GRAND FORKS    FAIR      63  41  44 S15       29.59S
GRAND FRKS AFB FAIR      60  41  50 S16       29.59S
DEVILS LAKE    FAIR      58  44  60 SE20G26   29.53S
FARGO          MOCLDY    60  43  53 S10       29.63S
WAHPETON ARPT  FAIR      55  41  58 SE12      29.65S
$$

 ***** WEATHER ACROSS CENTRAL AND WESTERN NORTH DAKOTA  *****

CITY           SKY/WX    TMP DP  RH WIND       PRES   REMARKS
BISMARCK       FAIR      66  39  37 S23       29.41F
MINOT          FAIR      67  37  33 SE18G25   29.38R
JAMESTOWN      FAIR      58  45  62 SE15      29.53S
MINOT AFB      MOCLDY    66  37  34 S17G25    29.37F
GARRISON         N/A     63  39  41 S12       29.40R
WILLISTON      LGT RAIN  59  55  87 NW9       29.37R FOG
DICKINSON      MOCLDY    64  36  35 SE15      29.33S
HETTINGER      FAIR      66  38  35 SE16G26   29.33S
$$

 *****  OTHER AIRPORT OBSERVATIONS IN OUR AREA  *****

CITY           SKY/WX    TMP DP  RH WIND       PRES   REMARKS
WALHALLA       NOT AVBL
GRAFTON AIRPOR FAIR      57  43  58 SE12      29.60F
VALLEY CITY AR FAIR      55  45  67 SE17G28   29.60R
CANDO          NOT AVBL
CAVALIER APRT  FAIR      61  41  48 S14       29.56F
GWINNER        PTCLDY    55  46  71 MISG      29.60S
SHEYENNE NWR     N/A     56  44  64 SE10      29.95S
ROLLA          FAIR      57  41  54 SE21G28   29.51R
 ***** THE ABOVE OBSERVATIONS ARE NON NWS ARE NOT QUALITY
       CONTROLLED AND MAY MIS-REPORT RAIN FOR SNOW...
$$

  *****  WEATHER ACROSS NORTHERN MINNESOTA  *****

CITY           SKY/WX    TMP DP  RH WIND       PRES   REMARKS
FLAG ISLAND    NOT AVBL
WARROAD        NOT AVBL
ROSEAU         NOT AVBL
HALLOCK        NOT AVBL
THF RVR FALLS  MOCLDY    59  40  49 SE14      29.66R
BAUDETTE       FAIR      59  39  47 S9        29.67S
WASKISH        NOT AVBL
CROOKSTON      NOT AVBL
STEPHEN NDAWN    N/A     59  39  47 S9          N/A
GREENBUSH NDAW   N/A     59  39  47 SE10        N/A
$$
  *****  WEATHER ACROSS CENTRAL AND WEST MINNESOTA  *****

CITY           SKY/WX    TMP DP  RH WIND       PRES   REMARKS
FOSSTON        NOT AVBL
BEMIDJI        NOT AVBL
PARK RAPIDS    CLOUDY    58  39  49 SE8       29.68F
ELBOW LAKE     NOT AVBL
WADENA         NOT AVBL
DETROIT LAKES  NOT AVBL
MOORHEAD       NOT AVBL
FERGUS FALLS   NOT AVBL
MORRIS MN      NOT AVBL
STAPLES        NOT AVBL
$$
  *****  WEATHER ELSEWHERE ACROSS MINNESOTA  *****

CITY           SKY/WX    TMP DP  RH WIND       PRES   REMARKS
DULUTH         FAIR      49  41  74 E10       29.74S
INTRNTL FALLS  FAIR      58  38  47 S5        29.70S
ELY            NOT AVBL
CLOQUET        NOT AVBL
WHEATON        NOT AVBL
BRAINERD       CLOUDY    56  43  61 SE3       29.72R
HIBBING        FAIR      50  39  66 SE7       29.73S
ALEXANDRIA     CLOUDY    55  42  61 E9        29.70S
SAINT CLOUD    CLOUDY    55  49  80 CALM      29.70S
MINNEAPOLIS    CLOUDY    59  44  57 NE7       29.70S
$$

  *****  WEATHER ACROSS SOUTH DAKOTA  *****

CITY           SKY/WX    TMP DP  RH WIND       PRES   REMARKS
SIOUX FALLS    FAIR      58  46  64 SE8       29.65S
BROOKINGS      FAIR      55  46  71 SE13      29.64F
WATERTOWN      FAIR      54  44  69 SE9       29.61F
HURON          FAIR      59  46  62 SE12      29.57F
SISSETON         N/A     57  46  66 S12       29.62S
ABERDEEN       FAIR      59  41  51 S14       29.58R
MITCHELL       FAIR      60  45  57 SE15      29.60S
PIERRE         FAIR      63  43  48 SE23G31   29.42F
MOBRIDGE       FAIR      63  43  48 SE20G26   29.43F
RAPID CITY     FAIR      70  49  47 SE14      29.31F
$$

  *****  SOME WEATHER IN NEARBY STATES *****

CITY           SKY/WX    TMP DP  RH WIND       PRES   REMARKS
GLASGOW MT       N/A    N/A N/A N/A MISG      29.35R
GREAT FALLS MT FAIR      55  19  24 W29G36    29.50R
CHEYENNE WY    FAIR      69  34  27 W16       29.62S
SCOTTSBLUFF NE FAIR      77  46  33 W3        29.42S
OMAHA NE       FAIR      60  49  66 E5        29.66S
DES MOINES IA  FAIR      60  48  64 N3        29.67S
DAVENPORT IA   CLOUDY    58  51  78 N9        29.64R
CHICAGO IL     CLOUDY    54  48  80 NE16      29.56S
EAU CLAIRE WI  FAIR      52  47  83 E5        29.71R
LA CROSSE WI   CLOUDY    58  50  75 CALM      29.69S
$$

  *****  SOME NATIONAL WEATHER *****

CITY           SKY/WX    TMP DP  RH WIND       PRES   REMARKS
LA GUARDIA NY  MOCLDY    61  49  64 E14       29.81S
RALEIGH NC     LGT RAIN  69  67  93 SE8       29.56S
ATLANTA GA     FAIR      64  50  60 NW13G22   29.56R
NEW ORLEANS LA FAIR      67  55  65 W6        29.72R
OKLAHOMA CITY  FAIR      64  46  52 E8        29.69R
ALBUQUERQUE NM FAIR      84  18   8 W14       29.77S
SALT LAKE CITY LGT RAIN  72  45  37 W23G32    29.59R
LOS ANGELES CA MOCLDY    60  54  80 W10       29.81F
BOISE ID       FAIR      67  24  19 NW23G33   29.62S
SEATTLE WA     PTSUNNY   61  41  47 N8        29.94F
$$

*** WEATHER ACROSS MANITOBA...SASKATCHEWAN AND ONTARIO ***
                ***ONTARIO***

CITY           SKY/WX    TMP DP  RH WIND       PRES   REMARKS
GERALDTON      PTCLDY    55  32  41 E6        29.79S
THUNDER BAY    CLEAR     54  34  47 NE2       29.77R
SIOUX LOOKOUT  PTCLDY    59  28  31 E5        29.72
TORONTO        LGT RAIN  63  50  63 E9G18     29.63R
BIG TROUT LK   CLEAR     55  30  38 SE5       29.72S
PICKLE LAKE    PTCLDY    61  30  31 S6        29.75S
DRYDEN         CLEAR     61  28  29 S8        29.71R
KENORA         PTCLDY    61  30  31 SE8       29.68S
$$
                *** MANITOBA***

CITY           SKY/WX    TMP DP  RH WIND       PRES   REMARKS
BRANDON        MOCLDY    63  41  45 S22G31    29.49R
DAUPHIN        CLOUDY    66  39  37 S13G24    29.45S
ISLAND LAKE    PTCLDY    66  34  30 SE7       29.60
PILOT MOUND      N/A     59  39  47 SE25G32     N/A
THE PAS        CLOUDY    64  41  42 SE18      29.41S
THOMPSON       MOCLDY    64  34  32 S12G17    29.53R
WINNIPEG       MOCLDY    64  39  39 S18G24    29.57R
LYNN LAKE      MOCLDY    66  34  30 S7        29.42R
CHURCHILL      MOCLDY    54  45  71 N13       29.50R
GILLAM         PTCLDY    68  37  32 S7        29.54
$$
                ***SASKATCHEWAN***

CITY           SKY/WX    TMP DP  RH WIND       PRES   REMARKS
ESTEVAN        LGT RAIN  57  52  82 SE6       29.32R
KINDERSLEY     CLOUDY    54  39  58 SW18      29.14S
LLOYDMINSTER   LGT RAIN  54  54 100 N22G30    29.16R
PRINCE ALBERT  TSTM      57  48  72 SE14G21   29.16R
REGINA         MOCLDY    63  37  39 VRB9      29.26R
YORKTON          N/A     55  50  82 SE15G22   29.33F
N. BATTLEFORD  CLOUDY    52  52 100 S3        29.16R
LA RONGE       LGT RAIN  52  46  82 NE12      29.34R
SASKATOON      TSTM      55  37  50 SE25G33   29.18R
SWIFT CURRENT  MOCLDY    50  36  57 W12G18    29.24R
$$
NOTE: THESE ARE AUTOMATED STATIONS WITH LIMITED QUALITY CONTROL
      "FAIR" INDICATES FEW OR NO CLOUDS BELOW 12,000 FEET WITH NO
      SIGNIFICANT WEATHER AND/OR OBSTRUCTIONS TO VISIBILITY.
      SKY/WX - SKY CONDITION AND SIGNIFICANT WEATHER.
      TMP - AIR TEMPERATURE.    DP   - DEWPOINT TEMPERATURE.
      RH  - RELATIVE HUMIDITY.  PRES - PRESSURE.
      HX  - HEAT INDEX.         WCI  - WIND CHILL INDEX.
$



USA.gov is the U.S. government's official web portal to all federal, state and local government web resources and services.